Weather History for KHWV - August, 2013

Change the Weather History Date:

Wednesday, August 21, 2013

  Actual Average (KISP) Record (KISP)
Temperature  
Mean Temperature 75 °F 72 °F  
Max Temperature 88 °F 80 °F 94 °F (1995)
Min Temperature 64 °F 65 °F 50 °F (1992)
Degree Days  
Heating Degree Days 0 0  
Month to date heating degree days 0  
Since 1 June heating degree days 40  
Since 1 July heating degree days 2  
Cooling Degree Days 10 8  
Month to date cooling degree days 180  
Year to date cooling degree days 620  
Since 1 June cooling degree days 596  
Growing Degree Days 25 (Base 50)    
Moisture  
Dew Point 65 °F    
Average Humidity 79    
Maximum Humidity 100    
Minimum Humidity 40    
Precipitation  
Precipitation 0.00 in 0.14 in 1.31 in (1997)
Month to date precipitation 2.75  
Year to date precipitation 29.91  
Snow  
Snow 0.00 in 0.00 in - ()
Month to date snowfall 0.0  
Since 1 July snowfall 0.0  
Snow Depth -    
Sea Level Pressure  
Sea Level Pressure 30.13 in    
Wind  
Wind Speed 2 mph (SW)    
Max Wind Speed 14 mph    
Max Gust Speed -    
Visibility 7 miles    
Events Fog    
T = Trace of Precipitation, MM = Missing Value Source: NWS Daily Summary

Daily Weather History Graph

Daily Weather History Graph

Search for Another Location

Airport or City:

Trip Planner

Search our weather history database for the weather conditions in past years. The results will help you decide how hot, cold, wet, or windy it might be!

Date:

Astronomy

Aug. 21, 2013 Rise Set
Actual Time 6:07 AM EDT 7:40 PM EDT
Civil Twilight 5:38 AM EDT 8:09 PM EDT
Nautical Twilight 5:03 AM EDT 8:44 PM EDT
Astronomical Twilight 4:26 AM EDT 9:21 PM EDT
Moon 7:46 PM EDT (8/21) 6:45 AM EDT (8/21)
Length of Visible Light 14h 30m
Length of Day
13h 32m
Full, 100% of the Moon is Illuminated
Aug 21
Full
Aug 28
Last Quarter
Sep 5
New
Sep 12
First Quarter
Sep 19
Full

Hourly Weather History & Observations

Time (EDT) Temp. Heat Index Dew Point Humidity Pressure Visibility Wind Dir Wind Speed Gust Speed Precip Events Conditions
12:56 AM 71.1 °F - 68.0 °F 90% 30.14 in 10.0 mi Calm Calm - N/A   Partly Cloudy
1:56 AM 68.0 °F - 66.9 °F 96% 30.13 in 7.0 mi Calm Calm - N/A   Scattered Clouds
2:56 AM 68.0 °F - 66.0 °F 93% 30.13 in 5.0 mi Calm Calm - N/A   Partly Cloudy
3:30 AM 66.2 °F - 64.4 °F 94% 30.13 in 6.0 mi Calm Calm - N/A   Partly Cloudy
3:43 AM 66.2 °F - 64.4 °F 94% 30.13 in 5.0 mi Calm Calm - N/A   Mostly Cloudy
3:56 AM 66.9 °F - 64.9 °F 93% 30.13 in 5.0 mi Calm Calm - N/A   Overcast
4:56 AM 64.9 °F - 64.0 °F 97% 30.14 in 5.0 mi Calm Calm - N/A   Overcast
5:35 AM 64.4 °F - 64.4 °F 100% 30.15 in 1.2 mi Calm Calm - N/A   Overcast
5:40 AM 64.4 °F - 64.4 °F 100% 30.15 in 0.2 mi Calm Calm - N/A Fog Fog
5:53 AM 64.4 °F - 62.6 °F 94% 30.15 in 0.8 mi Calm Calm - N/A   Mist
5:56 AM 64.0 °F - 63.0 °F 96% 30.15 in 1.0 mi Calm Calm - N/A   Mist
6:01 AM 64.4 °F - 62.6 °F 94% 30.15 in 2.0 mi Calm Calm - N/A   Scattered Clouds
6:10 AM 64.4 °F - 62.6 °F 94% 30.16 in 3.0 mi Calm Calm - N/A   Partly Cloudy
6:56 AM 64.0 °F - 63.0 °F 96% 30.16 in 4.0 mi Calm Calm - N/A   Clear
7:56 AM 72.0 °F - 69.1 °F 91% 30.17 in 5.0 mi Calm Calm - N/A   Clear
8:56 AM 75.9 °F - 66.9 °F 74% 30.17 in 10.0 mi WNW 3.5 mph - N/A   Clear
9:56 AM 80.1 °F 82.3 °F 66.9 °F 64% 30.17 in 10.0 mi NW 3.5 mph - N/A   Clear
10:56 AM 84.0 °F 85.4 °F 64.0 °F 51% 30.17 in 10.0 mi North 6.9 mph - N/A   Clear
11:56 AM 84.9 °F 85.0 °F 61.0 °F 44% 30.17 in 10.0 mi Variable 5.8 mph - N/A   Clear
12:56 PM 86.0 °F 85.4 °F 59.0 °F 40% 30.16 in 10.0 mi West 5.8 mph - N/A   Clear
1:56 PM 86.0 °F 86.3 °F 62.1 °F 44% 30.14 in 10.0 mi SSW 13.8 mph - N/A   Clear
2:56 PM 84.9 °F 85.0 °F 61.0 °F 44% 30.13 in 10.0 mi SW 8.1 mph - N/A   Clear
3:56 PM 84.9 °F 84.4 °F 59.0 °F 41% 30.12 in 10.0 mi SSW 11.5 mph - N/A   Clear
4:56 PM 82.9 °F 84.6 °F 64.9 °F 54% 30.11 in 10.0 mi SSW 10.4 mph - N/A   Clear
5:56 PM 79.0 °F - 64.0 °F 60% 30.10 in 10.0 mi SSW 5.8 mph - N/A   Clear
6:56 PM 77.0 °F - 68.0 °F 74% 30.09 in 8.0 mi SSW 6.9 mph - N/A   Clear
7:56 PM 75.0 °F - 68.0 °F 79% 30.10 in 9.0 mi SSW 5.8 mph - N/A   Clear
8:56 PM 73.9 °F - 69.1 °F 85% 30.09 in 8.0 mi SSW 5.8 mph - N/A   Clear
9:56 PM 73.9 °F - 71.1 °F 91% 30.10 in 9.0 mi SSW 6.9 mph - N/A   Clear
10:56 PM 73.0 °F - 70.0 °F 90% 30.10 in 10.0 mi SSW 5.8 mph - N/A   Clear
11:56 PM 73.0 °F - 69.1 °F 87% 30.07 in 9.0 mi SSW 5.8 mph - N/A   Clear